Location: Prairie Dale
(45.6972°N, 104.5033°W)
Time: 16:58:50
(UTC+00:00)

ESTCUBE 1 - Pass Details

Date: 29 June 2022
Orbit: 646 x 657 km, 97.9° (Epoch: 07 August)

Event Time Altitude Azimuth Distance (km) Brightness Sun altitude
Exits shadow 06:00:06 18° 229° (SW) 1,570 ? -19.7°
Maximum altitude 06:02:04 24° 266° (W) 1,329 ? -19.8°
Drops below altitude 10° 06:05:44 10° 321° (NW) 2,056 ? -19.9°
Sets 06:08:19 0° 335° (NNW) 2,974 ? -20.0°
